Weather observations for the past three days for
Sacramento, McClellan Airfield Airport
| Date | Time (pdt) | Wind (kph) | Vis. (km) | Weather | Sky Cond. | Temperature (ºC) | Relative Humidity | Wind Chill (°C) | Heat Index (°C) | Pressure | Precipitation (cm) | ||||||
|---|---|---|---|---|---|---|---|---|---|---|---|---|---|---|---|---|---|
| Air | Dwpt | 6 hour | altimeter (cm) | sea level (mb) | 1 hr | 3 hr | 6 hr | ||||||||||
| Max. | Min. | ||||||||||||||||
| 06 | 10:35 | Calm | 16.09 | Overcast | OVC042 | 18 | 12 | 68% | 76.56 | 0.0 | |||||||
| 06 | 10:15 | Calm | 16.09 | Overcast | OVC043 | 17 | 12 | 73% | 76.56 | 0.0 | |||||||
| 06 | 09:55 | Calm | 16.09 | Overcast | OVC043 | 17 | 12 | 73% | 76.56 | 0.0 | |||||||
| 06 | 09:35 | Calm | 16.09 | Overcast | OVC043 | 17 | 12 | 73% | 76.56 | 0.0 | |||||||
| 06 | 09:15 | S 6 | 16.09 | Overcast | OVC044 | 16 | 12 | 77% | 76.56 | 0.0 | |||||||
| 06 | 08:55 | S 7 | 16.09 | Overcast | OVC044 | 16 | 12 | 77% | 76.56 | 0.0 | |||||||
| 06 | 08:35 | SE 7 | 16.09 | Overcast | OVC045 | 15 | 12 | 82% | 76.56 | 0.0 | |||||||
| 06 | 08:15 | SE 6 | 16.09 | Overcast | OVC045 | 15 | 12 | 82% | 76.53 | 0.0 | |||||||
| 06 | 07:55 | SE 6 | 16.09 | Overcast | OVC046 | 15 | 12 | 82% | 76.53 | 0.0 | |||||||
| 06 | 07:35 | S 7 | 16.09 | Overcast | OVC046 | 15 | 12 | 82% | 76.53 | 0.0 | |||||||
| 06 | 07:15 | SE 6 | 16.09 | Overcast | OVC047 | 14 | 12 | 88% | 76.53 | 0.0 | |||||||
| 06 | 06:55 | SE 9 | 16.09 | Overcast | OVC047 | 14 | 12 | 88% | 76.5 | 0.0 | |||||||
| 06 | 06:35 | SE 11 | 16.09 | Overcast | OVC047 | 14 | 12 | 88% | 76.48 | 0.0 | |||||||
| 06 | 06:15 | SE 11 | 16.09 | Overcast | OVC047 | 14 | 12 | 88% | 76.48 | 0.0 | |||||||
| 06 | 05:55 | SE 9 | 16.09 | Overcast | OVC048 | 14 | 12 | 88% | 76.48 | 0.0 | |||||||
| 06 | 05:35 | SE 11 | 16.09 | Overcast | OVC049 | 14 | 12 | 88% | 76.45 | 0.0 | |||||||
| 06 | 05:15 | SE 11 | 16.09 | Overcast | OVC050 | 14 | 12 | 88% | 76.45 | 0.0 | |||||||
| 06 | 04:55 | SE 11 | 16.09 | Overcast | OVC050 | 14 | 12 | 88% | 76.45 | 0.0 | |||||||
| 06 | 04:35 | SE 11 | 16.09 | Overcast | OVC050 | 15 | 12 | 82% | 76.45 | 0.0 | |||||||
| 06 | 04:15 | SE 11 | 16.09 | Overcast | OVC050 | 15 | 12 | 82% | 76.43 | 0.0 | |||||||
| 06 | 03:55 | SE 9 | 16.09 | Overcast | OVC050 | 15 | 12 | 82% | 76.43 | 0.0 | 0.03 | ||||||
| 06 | 03:35 | S 7 | 16.09 | Overcast | OVC050 | 15 | 12 | 82% | 76.4 | 0.0 | |||||||
| 06 | 03:15 | SE 11 | 16.09 | Overcast | OVC049 | 15 | 12 | 82% | 76.4 | 0.0 | |||||||
| 06 | 02:55 | S 13 | 16.09 | Overcast | OVC047 | 15 | 12 | 82% | 76.38 | 0.0 | |||||||
| 06 | 02:35 | S 7 | 16.09 | Overcast | OVC047 | 15 | 12 | 82% | 76.4 | 0.0 | |||||||
| 06 | 02:15 | SE 7 | 16.09 | Overcast | OVC048 | 15 | 12 | 82% | 76.4 | 0.0 | |||||||
| 06 | 01:55 | SE 11 | 16.09 | Overcast | OVC047 | 15 | 12 | 82% | 76.4 | 0.0 | |||||||
| 06 | 01:35 | SE 7 | 16.09 | Overcast | OVC047 | 15 | 12 | 82% | 76.4 | 0.0 | |||||||
| 06 | 01:15 | SE 11 | 16.09 | Overcast | BKN046 OVC050 | 15 | 12 | 82% | 76.4 | 0.0 | |||||||
| 06 | 00:55 | SE 13 | 16.09 | Overcast | OVC045 | 15 | 12 | 82% | 76.38 | 0.0 | |||||||
| 06 | 00:35 | SE 9 | 16.09 | Overcast | BKN046 OVC050 | 15 | 12 | 82% | 76.38 | 0.0 | |||||||
| 06 | 00:15 | S 9 | 16.09 | Overcast | BKN044 OVC050 | 16 | 12 | 77% | 76.35 | 0.0 | |||||||
| 05 | 23:55 | S 9 | 16.09 | Overcast | OVC048 | 16 | 12 | 77% | 76.35 | 0.0 | |||||||
| 05 | 23:35 | S 13 | 16.09 | Overcast | OVC047 | 16 | 12 | 77% | 76.33 | 0.0 | |||||||
| 05 | 23:15 | SW 11 | 16.09 | Overcast | OVC047 | 16 | 12 | 77% | 76.33 | 0.0 | |||||||
| 05 | 22:55 | S 9 | 16.09 | Overcast | OVC048 | 16 | 12 | 77% | 76.33 | 0.0 | |||||||
| 05 | 22:35 | S 9 | 16.09 | Overcast | OVC046 | 16 | 12 | 77% | 76.3 | 0.0 | |||||||
| 05 | 22:15 | S 11 | 16.09 | Overcast | OVC046 | 16 | 12 | 77% | 76.3 | 0.0 | |||||||
| 05 | 21:55 | S 9 | 16.09 | Overcast | OVC047 | 16 | 12 | 77% | 76.28 | 0.0 | 0.03 | ||||||
| 05 | 21:35 | S 13 | 16.09 | Overcast | OVC048 | 17 | 12 | 73% | 76.25 | 0.0 | |||||||
| 05 | 21:15 | SW 20 | 16.09 | Overcast | OVC050 | 17 | 12 | 73% | 76.23 | 0.0 | |||||||
| 05 | 20:55 | SW 20 | 16.09 | Overcast | OVC050 | 17 | 12 | 73% | 76.23 | 0.0 | |||||||
| 05 | 20:35 | S 15 | 16.09 | Overcast | OVC048 | 18 | 13 | 73% | 76.2 | 0.0 | |||||||
| 05 | 20:15 | S 11 | 16.09 | Overcast | BKN042 OVC047 | 18 | 13 | 73% | 76.17 | 0.0 | |||||||
| 05 | 19:55 | S 15 | 16.09 | Overcast | FEW034 OVC040 | 18 | 13 | 73% | 76.15 | 0.0 | |||||||
| 05 | 19:35 | S 15 | 16.09 | Overcast | SCT033 BKN040 OVC048 | 18 | 13 | 73% | 76.15 | 0.0 | |||||||
| 05 | 19:15 | S 19 | 16.09 | Overcast | BKN038 OVC050 | 18 | 13 | 73% | 76.12 | 0.0 | |||||||
| 05 | 18:55 | S 15 | 16.09 | Overcast | OVC050 | 19 | 12 | 64% | 76.12 | 0.0 | 0.03 | ||||||
| 05 | 18:35 | S 17 | 16.09 | Overcast | FEW037 OVC049 | 19 | 12 | 64% | 76.1 | 0.0 | |||||||
| 05 | 18:15 | S 17 | 16.09 | Overcast | SCT037 OVC048 | 20 | 12 | 60% | 76.1 | 0.0 | |||||||
| 05 | 17:55 | S 11 | 16.09 | Overcast | OVC048 | 20 | 12 | 60% | 76.1 | 0.0 | |||||||
| 05 | 17:35 | Vrbl 9 G 19 | 16.09 | Mostly Cloudy | BKN047 | 20 | 11 | 56% | 76.1 | 0.0 | |||||||
| 05 | 17:15 | SW 11 | 16.09 | A Few Clouds | FEW046 | 20 | 11 | 56% | 76.1 | 0.0 | |||||||
| 05 | 16:55 | W 11 | 16.09 | Fair | CLR | 20 | 11 | 56% | 76.1 | 0.0 | 0.03 | ||||||
| 05 | 16:35 | W 11 | 16.09 | Fair | CLR | 20 | 11 | 56% | 76.1 | 0.0 | |||||||
| 05 | 16:15 | SW 9 | 16.09 | Fair | CLR | 20 | 11 | 56% | 76.1 | 0.0 | |||||||
| 05 | 15:55 | S 11 | 16.09 | Fair | CLR | 20 | 11 | 56% | 76.1 | 0.0 | |||||||
| 05 | 15:35 | Calm | 16.09 | Mostly Cloudy | BKN042 | 19 | 11 | 60% | 76.12 | 0.0 | |||||||
| 05 | 15:15 | Calm | 16.09 | Overcast | BKN036 OVC042 | 19 | 11 | 60% | 76.12 | 0.0 | |||||||
| 05 | 14:55 | Calm | 16.09 | Overcast | OVC033 | 18 | 11 | 64% | 76.15 | 0.0 | 0.03 | ||||||
| 05 | 14:35 | Calm | 16.09 | Overcast | OVC033 | 18 | 11 | 64% | 76.15 | 0.0 | |||||||
| 05 | 14:15 | Vrbl 9 | 16.09 | Overcast | OVC031 | 18 | 11 | 64% | 76.15 | 0.0 | |||||||
| 05 | 13:55 | Calm | 16.09 | Overcast | SCT030 OVC035 | 18 | 11 | 64% | 76.15 | 0.0 | |||||||
| 05 | 13:35 | Calm | 16.09 | Overcast | OVC035 | 18 | 12 | 68% | 76.15 | 0.0 | |||||||
| 05 | 13:15 | S 9 | 16.09 | Overcast | OVC034 | 17 | 11 | 68% | 76.17 | 0.0 | |||||||
| 05 | 12:55 | SE 9 | 16.09 | Overcast | OVC032 | 17 | 12 | 73% | 76.17 | 0.0 | 0.03 | ||||||
| 05 | 12:35 | S 11 | 16.09 | Overcast | OVC030 | 17 | 12 | 73% | 76.17 | 0.0 | |||||||
| 05 | 12:15 | Calm | 16.09 | Overcast | OVC027 | 16 | 11 | 72% | 76.2 | 0.0 | |||||||
| 05 | 11:55 | Vrbl 6 | 16.09 | Overcast | OVC023 | 16 | 12 | 77% | 76.17 | 0.0 | 0.03 | ||||||
| 05 | 11:35 | Vrbl 9 | 16.09 | Overcast | BKN021 OVC026 | 16 | 12 | 77% | 76.17 | 0.0 | |||||||
| 05 | 11:15 | Vrbl 6 | 16.09 | Overcast | OVC020 | 16 | 11 | 72% | 76.17 | 0.0 | |||||||
| 05 | 10:55 | SE 7 | 16.09 | Overcast | OVC018 | 15 | 12 | 82% | 76.17 | 0.0 | 0.03 | ||||||
| 05 | 10:35 | S 9 | 16.09 | Overcast | BKN016 OVC055 | 15 | 12 | 82% | 76.17 | 0.0 | |||||||
| 05 | 10:15 | SE 9 | 16.09 | Overcast | BKN014 OVC055 | 15 | 12 | 82% | 76.17 | 0.0 | |||||||
| 05 | 09:55 | SE 11 | 16.09 | Overcast | BKN012 OVC016 | 14 | 13 | 94% | 76.15 | 0.0 | 0.03 | ||||||
| 05 | 09:35 | SE 11 | 16.09 | Overcast | SCT010 BKN015 OVC055 | 14 | 13 | 94% | 76.15 | 0.0 | |||||||
| 05 | 09:15 | SE 13 | 16.09 | Overcast | SCT009 OVC014 | 13 | 13 | 100% | 76.15 | 0.0 | |||||||
| 05 | 08:55 | SE 13 | 16.09 | Overcast | OVC010 | 13 | 13 | 100% | 76.15 | 0.0 | 0.03 | ||||||
| 05 | 08:35 | SE 11 | 16.09 | Overcast | OVC008 | 13 | 12 | 94% | 76.15 | 0.0 | |||||||
| 05 | 08:15 | SE 11 | 16.09 | Overcast | OVC008 | 12 | 12 | 100% | 76.12 | 0.0 | |||||||
| 05 | 07:55 | SE 11 | 16.09 | Overcast | OVC008 | 12 | 12 | 100% | 76.12 | 0.0 | 0.03 | ||||||
| 05 | 07:35 | SE 11 | 16.09 | Overcast | OVC009 | 12 | 12 | 100% | 76.1 | 0.0 | |||||||
| 05 | 07:15 | SE 11 | 16.09 | Overcast | OVC009 | 12 | 12 | 100% | 76.07 | 0.0 | |||||||
| 05 | 06:55 | SE 13 | 16.09 | Overcast | OVC010 | 12 | 12 | 100% | 76.07 | 0.0 | 0.03 | ||||||
| 05 | 06:35 | SE 13 | 16.09 | Overcast | OVC010 | 12 | 12 | 100% | 76.07 | 0.0 | |||||||
| 05 | 06:15 | SE 9 | 16.09 | Overcast | OVC008 | 12 | 12 | 100% | 76.07 | 0.0 | |||||||
| 05 | 05:55 | SE 13 | 16.09 | Overcast | OVC009 | 12 | 12 | 100% | 76.05 | 0.0 | 0.05 | ||||||
| 05 | 05:35 | SE 9 | 14.48 | Overcast | BKN009 OVC016 | 12 | 12 | 100% | 76.05 | 0.0 | |||||||
| 05 | 05:15 | S 7 | 14.48 | Overcast | FEW005 OVC015 | 12 | 12 | 100% | 76.05 | 0.0 | |||||||
| 05 | 04:55 | SE 11 | 16.09 | Overcast | BKN005 OVC009 | 12 | 12 | 100% | 76.05 | 0.0 | 0.05 | ||||||
| 05 | 04:35 | SE 9 | 16.09 | Overcast | BKN006 OVC009 | 12 | 12 | 100% | 76.07 | 0.0 | |||||||
| 05 | 04:15 | S 9 | 16.09 | Overcast | BKN007 OVC012 | 12 | 12 | 100% | 76.07 | 0.0 | |||||||
| 05 | 03:55 | SE 13 | 16.09 | Overcast | OVC006 | 12 | 12 | 100% | 76.07 | 0.0 | 0.05 | ||||||
| 05 | 03:35 | S 11 | 16.09 | Overcast | BKN005 OVC009 | 12 | 12 | 100% | 76.07 | 0.0 | |||||||
| 05 | 03:15 | S 9 | 16.09 | Overcast | SCT006 OVC048 | 12 | 12 | 100% | 76.07 | 0.0 | |||||||
| 05 | 02:55 | S 15 | 16.09 | Overcast | FEW006 OVC050 | 12 | 12 | 100% | 76.07 | 0.0 | 0.05 | ||||||
| 05 | 02:35 | S 13 | 16.09 | Overcast | FEW005 OVC050 | 12 | 12 | 100% | 76.07 | 0.0 | |||||||
| 05 | 02:15 | SE 15 | 16.09 | Overcast | SCT005 OVC050 | 12 | 12 | 100% | 76.1 | 0.0 | |||||||
| 05 | 01:55 | SE 13 | 16.09 | Overcast | BKN004 OVC055 | 12 | 12 | 100% | 76.1 | 0.0 | 0.08 | ||||||
| 05 | 01:35 | SE 13 | 16.09 | Overcast | OVC005 | 12 | 12 | 100% | 76.12 | 0.0 | |||||||
| 05 | 00:55 | SE 11 | 16.09 | Light Rain | FEW020 OVC055 | 12 | 12 | 100% | 76.12 | 0.0 | 0.08 | ||||||
| 05 | 00:35 | S 7 | 16.09 | Light Rain | FEW004 OVC020 | 12 | 12 | 100% | 76.12 | 0.0 | |||||||
| 05 | 00:15 | SE 7 | 8.05 | Light Rain Fog/Mist | FEW004 OVC022 | 12 | 12 | 100% | 76.15 | 0.0 | |||||||
| 04 | 23:55 | SE 6 | 8.05 | Light Rain Fog/Mist | FEW005 BKN023 OVC055 | 12 | 12 | 100% | 76.12 | 0.0 | 0.1 | ||||||
| 04 | 23:35 | Calm | 4.83 | Light Rain Fog/Mist | FEW006 BKN023 OVC085 | 12 | 12 | 100% | 76.15 | 0.0 | |||||||
| 04 | 23:15 | Calm | 4.83 | Light Rain Fog/Mist | FEW033 BKN055 BKN070 | 12 | 12 | 100% | 76.12 | 0.0 | |||||||
| 04 | 22:55 | E 6 | 4.83 | Light Rain Fog/Mist | FEW002 SCT055 BKN075 | 13 | 13 | 100% | 76.15 | 0.0 | 0.08 | ||||||
| 04 | 22:35 | E 6 | 6.44 | Light Rain Fog/Mist | FEW055 SCT070 BKN075 | 12 | 12 | 100% | 76.15 | 0.0 | |||||||
| 04 | 22:15 | E 7 | 16.09 | Overcast | FEW048 BKN070 OVC085 | 13 | 12 | 94% | 76.12 | 0.0 | |||||||
| 04 | 21:55 | SE 9 | 11.27 | Light Rain | FEW048 SCT065 BKN090 | 12 | 12 | 100% | 76.12 | 0.0 | 0.08 | ||||||
| 04 | 21:35 | SE 7 | 3.22 | Light Rain Fog/Mist | CLR | 12 | 12 | 100% | 76.12 | 0.0 | |||||||
| 04 | 21:15 | E 7 | 2.82 | Light Rain Fog/Mist | FEW003 SCT075 | 13 | 13 | 100% | 76.12 | 0.0 | |||||||
| 04 | 20:55 | E 7 | 6.44 | Light Rain Fog/Mist | SCT075 | 13 | 13 | 100% | 76.15 | 0.0 | 0.08 | ||||||
| 04 | 20:35 | NE 7 | 3.22 | Light Rain Fog/Mist | SCT065 SCT075 | 13 | 12 | 94% | 76.12 | 0.0 | |||||||
| 04 | 20:15 | NE 11 | 4.83 | Light Rain Fog/Mist | BKN070 | 13 | 12 | 94% | 76.15 | 0.0 | |||||||
| 04 | 19:55 | E 11 | 8.05 | Light Rain Fog/Mist | OVC075 | 13 | 13 | 100% | 76.12 | 0.0 | 0.05 | ||||||
| 04 | 19:35 | SE 13 | 9.66 | Light Rain Fog/Mist | FEW065 BKN075 | 13 | 12 | 94% | 76.1 | 0.0 | |||||||
| 04 | 19:15 | S 9 | 6.44 | Light Rain Fog/Mist | FEW055 BKN075 | 13 | 12 | 94% | 76.07 | 0.0 | |||||||
| 04 | 18:55 | E 13 | 8.05 | Light Rain Fog/Mist | BKN075 | 13 | 12 | 94% | 76.07 | 0.0 | 0.05 | ||||||
| 04 | 18:35 | SE 9 | 9.66 | Light Rain Fog/Mist | BKN080 | 13 | 13 | 100% | 76.07 | 0.0 | |||||||
| 04 | 18:15 | SE 13 | 16.09 | Light Rain | BKN080 | 13 | 12 | 94% | 76.07 | 0.0 | |||||||
| 04 | 17:55 | E 11 | 14.48 | Light Rain | SCT080 | 14 | 13 | 94% | 76.1 | 0.0 | 0.08 | ||||||
| 04 | 17:35 | E 11 | 16.09 | Light Rain | CLR | 14 | 13 | 94% | 76.12 | 0.0 | |||||||
| 04 | 17:15 | SE 17 | 6.44 | Light Rain Fog/Mist | SCT075 | 14 | 13 | 94% | 76.12 | 0.0 | |||||||
| 04 | 16:55 | E 15 | 12.87 | Light Rain | OVC080 | 14 | 13 | 94% | 76.12 | 0.0 | 0.08 | ||||||
| 04 | 16:35 | E 13 | 8.05 | Light Rain Fog/Mist | BKN080 | 14 | 13 | 94% | 76.12 | 0.0 | |||||||
| 04 | 16:15 | E 17 | 6.44 | Light Rain Fog/Mist | FEW060 BKN080 | 14 | 13 | 94% | 76.12 | 0.0 | |||||||
| 04 | 15:55 | E 17 | 14.48 | Light Rain | FEW060 BKN080 | 14 | 13 | 94% | 76.12 | 0.0 | 0.03 | ||||||
| 04 | 15:35 | E 13 | 14.48 | Light Rain | OVC080 | 14 | 13 | 94% | 76.12 | 0.0 | |||||||
| 04 | 15:15 | E 13 | 14.48 | Light Rain | SCT060 OVC080 | 15 | 13 | 88% | 76.15 | 0.0 | |||||||
| 04 | 14:55 | SE 13 | 14.48 | Light Rain | FEW050 OVC060 | 15 | 12 | 82% | 76.15 | 0.0 | |||||||
| 04 | 14:35 | E 11 | 16.09 | Overcast | OVC060 | 16 | 12 | 77% | 76.15 | 0.0 | |||||||
| 04 | 14:15 | Vrbl 7 | 16.09 | Mostly Cloudy | FEW023 BKN060 BKN090 | 16 | 12 | 77% | 76.15 | 0.0 | |||||||
| 04 | 13:55 | Vrbl 7 | 16.09 | Partly Cloudy | FEW021 FEW026 SCT090 | 16 | 12 | 77% | 76.15 | 0.0 | 0.03 | ||||||
| 04 | 13:35 | SE 13 | 16.09 | Partly Cloudy | SCT020 SCT070 | 16 | 12 | 77% | 76.15 | 0.0 | |||||||
| 04 | 13:15 | S 9 | 16.09 | Light Rain | SCT065 | 15 | 12 | 82% | 76.15 | 0.0 | |||||||
| 04 | 12:55 | S 9 | 16.09 | Light Rain | BKN065 | 15 | 12 | 82% | 76.15 | 0.0 | |||||||
| 04 | 12:35 | S 9 | 16.09 | Light Rain | OVC065 | 15 | 12 | 82% | 76.17 | 0.0 | |||||||
| 04 | 12:15 | S 11 | 16.09 | Partly Cloudy | SCT065 | 15 | 12 | 82% | 76.15 | 0.0 | |||||||
| 04 | 11:55 | SE 13 | 16.09 | Light Rain | FEW050 | 15 | 12 | 82% | 76.17 | 0.0 | |||||||
| 04 | 11:35 | SE 13 | 14.48 | Light Rain | FEW080 | 14 | 13 | 94% | 76.17 | 0.0 | |||||||
| 04 | 11:15 | SE 11 | 12.87 | Light Rain | FEW060 BKN080 | 14 | 12 | 88% | 76.17 | 0.0 | |||||||
| 04 | 10:55 | S 11 | 16.09 | Light Rain | FEW085 | 14 | 11 | 82% | 76.15 | 0.0 | |||||||
| 04 | 10:35 | S 15 | 16.09 | Fair | CLR | 15 | 11 | 77% | 76.15 | 0.0 | |||||||
| 04 | 10:15 | S 15 | 16.09 | Partly Cloudy | SCT065 | 15 | 11 | 77% | 76.15 | 0.0 | |||||||
| 04 | 09:55 | SE 15 | 16.09 | Mostly Cloudy | FEW018 BKN065 | 15 | 11 | 77% | 76.12 | 0.0 | |||||||
| 04 | 09:35 | SE 13 | 16.09 | Mostly Cloudy | FEW018 BKN060 BKN075 | 15 | 11 | 77% | 76.15 | 0.0 | |||||||
| 04 | 09:15 | S 15 | 16.09 | Mostly Cloudy | FEW018 BKN060 BKN075 | 14 | 11 | 82% | 76.15 | 0.0 | |||||||
| 04 | 08:55 | S 11 G 22 | 16.09 | Partly Cloudy | SCT015 SCT060 | 14 | 11 | 82% | 76.12 | 0.0 | |||||||
| 04 | 08:35 | S 19 | 16.09 | Overcast | OVC015 | 14 | 11 | 82% | 76.1 | 0.0 | |||||||
| 04 | 08:15 | S 17 | 16.09 | Overcast | OVC014 | 14 | 11 | 82% | 76.1 | 0.0 | |||||||
| 04 | 07:55 | SE 15 | 16.09 | Mostly Cloudy | BKN014 | 14 | 12 | 88% | 76.07 | 0.0 | |||||||
| 04 | 07:35 | SE 15 | 16.09 | Light Rain | BKN015 BKN060 BKN080 | 13 | 12 | 94% | 76.07 | 0.0 | |||||||
| 04 | 07:15 | SE 13 | 16.09 | Mostly Cloudy | FEW014 SCT065 BKN080 | 13 | 11 | 88% | 76.1 | 0.0 | |||||||
| 04 | 06:55 | S 11 | 16.09 | Mostly Cloudy | SCT075 BKN090 BKN120 | 12 | 11 | 94% | 76.07 | 0.0 | |||||||
| 04 | 06:35 | SE 11 | 16.09 | Overcast | SCT060 BKN075 OVC090 | 12 | 11 | 94% | 76.07 | 0.0 | |||||||
| 04 | 06:15 | SE 15 | 16.09 | Overcast | OVC055 | 12 | 11 | 94% | 76.05 | 0.0 | |||||||
| 04 | 05:55 | S 15 | 16.09 | Overcast | SCT043 OVC055 | 12 | 11 | 94% | 76.05 | 0.0 | |||||||
| 04 | 05:35 | SE 13 | 16.09 | Overcast | OVC042 | 12 | 10 | 88% | 76.05 | 0.0 | |||||||
| 04 | 05:15 | SE 11 | 16.09 | Overcast | OVC042 | 12 | 10 | 88% | 76.05 | 0.0 | |||||||
| 04 | 04:55 | SE 11 | 16.09 | Overcast | OVC042 | 12 | 10 | 88% | 76.05 | 0.0 | |||||||
| 04 | 04:35 | S 11 | 16.09 | Mostly Cloudy | BKN042 BKN100 | 12 | 10 | 88% | 76.02 | 0.0 | |||||||
| 04 | 04:15 | S 15 | 16.09 | Overcast | OVC044 | 12 | 10 | 88% | 76.02 | 0.0 | |||||||
| 04 | 03:35 | SE 13 | 16.09 | Fair | CLR | 12 | 10 | 88% | 76.02 | 0.0 | |||||||
| 04 | 03:15 | S 11 | 16.09 | Partly Cloudy | SCT044 | 13 | 10 | 82% | 76.02 | 0.0 | |||||||
| 04 | 02:55 | SE 11 | 16.09 | Overcast | OVC044 | 12 | 10 | 88% | 76.05 | 0.0 | |||||||
| 04 | 02:35 | SE 11 | 16.09 | Mostly Cloudy | BKN043 | 12 | 10 | 88% | 76.05 | 0.0 | |||||||
| 04 | 02:15 | SE 9 | 16.09 | Fair | CLR | 12 | 10 | 88% | 76.05 | 0.0 | |||||||
| 04 | 01:55 | SE 11 | 16.09 | A Few Clouds | FEW042 | 12 | 10 | 88% | 76.05 | 0.0 | |||||||
| 04 | 01:35 | S 11 | 16.09 | Mostly Cloudy | BKN042 | 12 | 10 | 88% | 76.05 | 0.0 | |||||||
| 04 | 01:15 | SE 7 | 16.09 | Partly Cloudy | SCT041 | 12 | 10 | 88% | 76.05 | 0.0 | |||||||
| 04 | 00:55 | SE 11 | 16.09 | Fair | CLR | 12 | 10 | 88% | 76.05 | 0.0 | |||||||
| 04 | 00:35 | SE 7 | 16.09 | Fair | CLR | 13 | 10 | 82% | 76.05 | 0.0 | |||||||
| 04 | 00:15 | SE 9 | 16.09 | Fair | CLR | 13 | 10 | 82% | 76.05 | 0.0 | |||||||
| 03 | 23:55 | S 7 | 16.09 | Fair | CLR | 13 | 10 | 82% | 76.05 | 0.0 | |||||||
| 03 | 23:35 | S 9 | 16.09 | Partly Cloudy | SCT070 | 14 | 9 | 72% | 76.05 | 0.0 | |||||||
| 03 | 23:15 | S 11 | 16.09 | Overcast | OVC070 | 14 | 9 | 72% | 76.02 | 0.0 | |||||||
| 03 | 22:55 | S 9 | 16.09 | Mostly Cloudy | BKN070 | 15 | 9 | 68% | 76.02 | 0.0 | |||||||
| 03 | 22:35 | SW 11 | 16.09 | Fair | CLR | 15 | 9 | 68% | 76.02 | 0.0 | |||||||
| 03 | 21:55 | SW 9 G 20 | 16.09 | Fair | CLR | 15 | 9 | 68% | 76 | 0.0 | |||||||
| 03 | 21:35 | SW 11 G 20 | 16.09 | A Few Clouds | FEW060 | 16 | 9 | 63% | 75.97 | 0.0 | |||||||
| 03 | 21:15 | S 17 | 16.09 | Overcast | OVC060 | 16 | 10 | 68% | 75.95 | 0.0 | |||||||
| 03 | 20:55 | S 17 | 16.09 | Overcast | OVC060 | 16 | 10 | 68% | 75.95 | 0.0 | |||||||
| 03 | 20:15 | S 17 | 16.09 | Partly Cloudy | SCT060 | 17 | 10 | 64% | 75.9 | 0.0 | |||||||
| 03 | 19:55 | S 17 G 28 | 16.09 | Fair | CLR | 17 | 9 | 60% | 75.9 | 0.0 | |||||||
| 03 | 19:35 | S 19 G 28 | 16.09 | Fair | CLR | 18 | 9 | 56% | 75.87 | 0.0 | |||||||
| 03 | 19:15 | S 19 G 28 | 16.09 | Fair | CLR | 18 | 9 | 56% | 75.87 | 0.0 | |||||||
| 03 | 18:55 | S 24 | 16.09 | Fair | CLR | 19 | 9 | 52% | 75.87 | 0.0 | |||||||
| 03 | 18:35 | SW 20 G 30 | 16.09 | Fair | CLR | 19 | 9 | 52% | 75.84 | 0.0 | |||||||
| 03 | 18:15 | S 20 | 16.09 | Fair | CLR | 20 | 9 | 49% | 75.84 | 0.0 | |||||||
| 03 | 17:55 | S 20 G 31 | 16.09 | Fair | CLR | 19 | 9 | 52% | 75.84 | 0.0 | |||||||
| 03 | 17:35 | S 20 | 16.09 | Fair | CLR | 20 | 9 | 49% | 75.84 | 0.0 | |||||||
| 03 | 17:15 | SW 17 G 30 | 16.09 | Fair | CLR | 20 | 9 | 49% | 75.84 | 0.0 | |||||||
| 03 | 16:55 | SW 19 | 16.09 | Fair | CLR | 20 | 9 | 49% | 75.87 | 0.0 | |||||||
| 03 | 16:35 | SW 15 G 28 | 16.09 | Fair | CLR | 20 | 9 | 49% | 75.87 | 0.0 | |||||||
| 03 | 16:15 | SW 15 G 26 | 16.09 | Fair | CLR | 20 | 9 | 49% | 75.87 | 0.0 | |||||||
| 03 | 15:55 | SW 20 | 16.09 | Fair | CLR | 20 | 9 | 49% | 75.87 | 0.0 | |||||||
| 03 | 15:35 | SW 17 G 37 | 16.09 | Fair | CLR | 20 | 10 | 53% | 75.84 | 0.0 | |||||||
| 03 | 15:15 | SW 20 | 16.09 | Fair | CLR | 19 | 10 | 56% | 75.87 | 0.0 | |||||||
| 03 | 14:55 | SW 20 G 30 | 16.09 | Fair | CLR | 19 | 10 | 56% | 75.87 | 0.0 | |||||||
| 03 | 14:35 | S 20 G 33 | 16.09 | Fair | CLR | 19 | 9 | 52% | 75.9 | 0.0 | |||||||
| 03 | 14:15 | SW 22 G 33 | 16.09 | Fair | CLR | 19 | 10 | 56% | 75.9 | 0.0 | |||||||
| 03 | 13:55 | S 19 G 31 | 16.09 | Fair | CLR | 19 | 10 | 56% | 75.9 | 0.0 | |||||||
| 03 | 13:35 | SW 24 | 16.09 | Fair | CLR | 19 | 9 | 52% | 75.9 | 0.0 | |||||||
| 03 | 13:15 | SW 26 | 16.09 | Fair | CLR | 18 | 9 | 56% | 75.9 | 0.0 | |||||||
| 03 | 12:55 | SW 20 G 31 | 16.09 | Fair | CLR | 18 | 9 | 56% | 75.92 | 0.0 | |||||||
| 03 | 12:35 | S 24 G 35 | 16.09 | Fair | CLR | 18 | 9 | 56% | 75.92 | 0.0 | |||||||
| 03 | 12:15 | S 22 | 16.09 | Fair | CLR | 18 | 9 | 56% | 75.92 | 0.0 | |||||||
| 03 | 11:55 | S 24 G 35 | 16.09 | Fair | CLR | 17 | 9 | 60% | 75.92 | 0.0 | |||||||
| 03 | 11:35 | S 20 G 33 | 16.09 | Fair | CLR | 17 | 9 | 60% | 75.92 | 0.0 | |||||||
| 03 | 11:15 | S 24 G 37 | 16.09 | Fair | CLR | 17 | 10 | 64% | 75.92 | 0.0 | |||||||
| 03 | 10:55 | S 26 G 37 | 16.09 | Fair | CLR | 16 | 10 | 68% | 75.95 | 0.0 | |||||||
| Date | Time (pdt) | Wind (kph) | Vis. (km) | Weather | Sky Cond. | Air | Dwpt | Max. | Min. | Relative Humidity | Wind Chill (°C) | Heat Index (°C) | altimeter (cm) | sea level (mb) | 1 hr | 3 hr | 6 hr |
| 6 hour | |||||||||||||||||
| Temperature (ºC) | Pressure | Precipitation (cm) | |||||||||||||||